Hourly Data Report for November 03, 2016

All times are specified in Local Standard Time (LST). Add 1 hour to adjust for Daylight Saving Time where and when it is observed.

VICTORIA UNIVERSITY CS
BRITISH COLUMBIA

48°27'25.200" N
123°18'16.600" W
60.10 m
1018598
71783
WYJ

Download Data

Hourly Data (November 2016)
Hourly Data Report for November 3, 2016
TIME Temp Definition
°C
Dew Point Definition
°C
Rel Hum Definition
%
Wind Dir Definition
10's deg

Wind Spd Definition
km/h
Visibility Definition
km
Stn Press Definition
kPa
Hmdx Definition


Wind Chill Definition


Weather Definition


00:00 10.6 9.7 94 9 2   101.28     LegendNANA
01:00 10.4 10.0 97 9 5   101.30     LegendNANA
02:00 9.7 9.3 97 7 5   101.35     LegendNANA
03:00 8.7 8.4 98 7 4   101.41     LegendNANA
04:00 9.2 9.0 99 9 3   101.37     LegendNANA
05:00 8.8 8.6 99 15 1   101.44     LegendNANA
06:00 8.6 8.5 99 34 6   101.45     LegendNANA
07:00 8.6 8.4 99 4 3   101.47     LegendNANA
08:00 8.9 8.8 99 11 1   101.54     LegendNANA
09:00 10.1 10.0 99 10 2   101.62     LegendNANA
10:00 11.3 9.5 89 14 2   101.62     LegendNANA
11:00 13.5 9.8 78 14 3   101.61     LegendNANA
12:00 14.3 9.0 70 12 3   101.62     LegendNANA
13:00 14.6 9.7 73 9 5   101.55     LegendNANA
14:00 14.0 9.5 74 15 3   101.48     LegendNANA
15:00 14.5 8.1 65 10 1   101.44     LegendNANA
16:00 13.1 9.1 77 23 1   101.36     LegendNANA
17:00 12.0 9.1 82 15 3   101.29     LegendNANA
18:00 11.5 9.1 85 10 2   101.28     LegendNANA
19:00 9.4 8.0 92 0 1   101.25     LegendNANA
20:00 9.8 9.0 95 35 8   101.23     LegendNANA
21:00 9.6 7.9 89 31 4   101.21     LegendNANA
22:00 9.0 8.2 95 32 5   101.20     LegendNANA
23:00 9.9 8.5 91 34 11   101.12     LegendNANA

Notes on Data Quality.

Legend

  • E = Estimated
  • M = Missing
  • NA = Not Available*
  • [empty] = Indicates an unobserved value
Date modified: